Location: Terra Rouge Observatory
(46.0000°N, 62.7500°W)
Time: 22:35:45
(UTC-03:00)

Amateur Radio Satellites - All Passes

Search period start: 21 October 2014 22:05
Search period end: 22 October 2014 22:05
Location: Terra Rouge Observatory, 46.0000°N, 62.7500°W

Satellite Date Start Highest point End Downlink Frequencies (MHz)
Time Altitude Azimuth
RS-15 21 Oct 22:19:03 22:28:32 36° 107° (ESE) 22:37:56 29.354 - 29.394 USB, Beacon 29.352 USB
SO-50 21 Oct 22:20:22 22:25:07 55° 49° (NE) 22:29:54 436.795 FM
FUNcube-1 21 Oct 22:20:39 22:25:11 62° 73° (ENE) 22:29:41 145.950 - 145.970 MHz USB
UOSAT-12 21 Oct 22:23:51 22:26:26 14° 27° (NNE) 22:29:01 437.025 FM, 437.400 FM
Oscar 11 21 Oct 22:32:23 22:36:31 44° 261° (W) 22:40:42 145.825 FM, Beacon 2401.500 USB
KITSAT 1 21 Oct 22:40:48 22:48:50 72° 241° (WSW) 22:56:50 435.175 FM
ZACube-1 21 Oct 23:11:33 23:15:55 42° 262° (W) 23:20:16 437.345 MHz
UKube-1 21 Oct 23:26:39 23:28:20 12° 271° (W) 23:30:01 145.840 MHz, 145.915 MHz
FUNcube-1 21 Oct 23:59:10 00:01:56 16° 270° (W) 00:04:42 145.950 - 145.970 MHz USB
SO-50 22 Oct 00:01:33 00:05:22 24° 247° (WSW) 00:09:13 436.795 FM
UOSAT-12 22 Oct 00:03:00 00:07:39 53° 48° (NE) 00:12:14 437.025 FM, 437.400 FM
RS-15 22 Oct 00:29:03 00:40:00 73° 310° (NW) 00:51:01 29.354 - 29.394 USB, Beacon 29.352 USB
MaSat-1 22 Oct 00:35:21 00:39:07 32° 112° (ESE) 00:42:35 437.345 MHz
KITSAT 1 22 Oct 00:38:38 00:42:48 15° 261° (W) 00:46:57 435.175 FM
Oscar 16 22 Oct 01:18:06 01:19:04 11° 86° (E) 01:20:02 437.025 USB, Beacon 2401.1428
UOSAT-12 22 Oct 01:43:48 01:47:29 23° 247° (WSW) 01:51:07 437.025 FM, 437.400 FM
JAS-1B 22 Oct 01:53:56 01:59:14 25° 94° (E) 02:05:14 435.800 - 435.900 CW/SSB
Oscar 19 22 Oct 02:09:14 02:13:48 32° 96° (E) 02:18:20 437.125 CW, 437.150 USB
MaSat-1 22 Oct 02:11:20 02:14:52 27° 306° (NW) 02:18:06 437.345 MHz
AO-27 22 Oct 02:19:24 02:22:50 17° 90° (E) 02:26:13 436.795 MHz FM
RS-15 22 Oct 02:44:59 02:54:34 33° 340° (NNW) 03:04:18 29.354 - 29.394 USB, Beacon 29.352 USB
Oscar 16 22 Oct 02:54:05 02:59:14 81° 104° (ESE) 03:04:22 437.025 USB, Beacon 2401.1428
Uribyol 2 22 Oct 03:07:44 03:12:48 47° 99° (E) 03:17:48 436.500 FM
ITAMSAT 1 22 Oct 03:12:53 03:17:59 50° 100° (E) 03:23:02 435.822 SSB
Gurwin Techsat 1B 22 Oct 03:13:43 03:18:18 28° 94° (E) 03:22:51 435.225 FM
AO-Echo 22 Oct 03:15:25 03:20:43 70° 102° (ESE) 03:26:01 ?
TMSAT-1 22 Oct 03:27:08 03:31:41 28° 94° (E) 03:36:12 436.925 FM
AO-7 22 Oct 03:40:31 03:43:34 12° 84° (E) 03:46:37 29.400 - 29.500 MHz
JAS-1B 22 Oct 03:43:57 03:50:12 64° 289° (WNW) 03:57:35 435.800 - 435.900 CW/SSB
Oscar 19 22 Oct 03:48:31 03:53:10 36° 294° (WNW) 03:57:48 437.125 CW, 437.150 USB
AO-27 22 Oct 03:57:37 04:02:51 68° 288° (WNW) 04:08:01 436.795 MHz FM
OPAL 22 Oct 03:58:48 04:02:27 20° 57° (ENE) 04:06:04 ?
Sapphire 22 Oct 04:33:54 04:38:38 32° 111° (ESE) 04:43:24 437.095 MHz 1200 baud AX-25 AFSK
Oscar 16 22 Oct 04:34:54 04:37:57 16° 302° (WNW) 04:40:59 437.025 USB, Beacon 2401.1428
Uribyol 2 22 Oct 04:47:44 04:52:00 26° 298° (WNW) 04:56:15 436.500 FM
ITAMSAT 1 22 Oct 04:52:58 04:57:11 25° 298° (WNW) 05:01:23 435.822 SSB
Gurwin Techsat 1B 22 Oct 04:53:24 04:58:24 43° 292° (WNW) 05:03:23 435.225 FM
AO-Echo 22 Oct 04:55:16 04:58:57 20° 300° (WNW) 05:02:39 ?
PCSat 22 Oct 04:56:11 05:01:25 52° 116° (ESE) 05:06:41 145.825 MHz
Uosat F 22 Oct 04:57:58 05:02:20 28° 95° (E) 05:06:39 435.120 FM
RS-15 22 Oct 05:01:38 05:11:07 31° 15° (NNE) 05:20:49 29.354 - 29.394 USB, Beacon 29.352 USB
TMSAT-1 22 Oct 05:06:45 05:11:45 43° 292° (WNW) 05:16:44 436.925 FM
JAS-2 22 Oct 05:23:33 05:29:21 23° 88° (E) 05:35:12 435.800 - 435.900 CW/SSB, 435.910 FM
AO-7 22 Oct 05:29:45 05:38:02 63° 104° (ESE) 05:46:16 29.400 - 29.500 MHz
OPAL 22 Oct 05:35:43 05:40:51 67° 255° (WSW) 05:45:58 ?
JAS-1B 22 Oct 05:37:21 05:39:54 13° 308° (NW) 05:42:35 435.800 - 435.900 CW/SSB
STRAND 1 22 Oct 05:38:28 05:41:41 17° 58° (ENE) 05:44:54 ?
AO-27 22 Oct 05:39:46 05:41:24 11° 307° (NW) 05:43:01 436.795 MHz FM
Sapphire 22 Oct 06:16:43 06:21:54 45° 310° (NW) 06:27:08 437.095 MHz 1200 baud AX-25 AFSK
Uosat F 22 Oct 06:36:31 06:41:13 40° 293° (WNW) 06:45:53 435.120 FM
Hamsat 22 Oct 06:37:21 06:41:17 38° 97° (E) 06:45:12 145.90 MHz
PCSat 22 Oct 06:40:19 06:45:05 31° 316° (NW) 06:49:54 145.825 MHz
JAS-2 22 Oct 07:07:25 07:15:06 85° 286° (WNW) 07:22:59 435.800 - 435.900 CW/SSB, 435.910 FM
RS-15 22 Oct 07:15:05 07:26:08 64° 46° (NE) 07:37:35 29.354 - 29.394 USB, Beacon 29.352 USB
STRAND 1 22 Oct 07:15:08 07:20:15 77° 256° (WSW) 07:25:26 ?
AO-7 22 Oct 07:23:07 07:30:23 36° 305° (NW) 07:37:40 29.400 - 29.500 MHz
Saudisat 1A 22 Oct 07:42:08 07:43:40 12° 108° (ESE) 07:45:13 436.775 MHz
Sapphire 22 Oct 08:04:18 08:06:47 13° 333° (NNW) 08:09:16 437.095 MHz 1200 baud AX-25 AFSK
Hamsat 22 Oct 08:13:49 08:17:01 22° 295° (WNW) 08:20:14 145.90 MHz
SO-67 22 Oct 08:25:05 08:28:33 89° 102° (ESE) 08:32:00 435.3500 MHz FM
PCSat 22 Oct 08:29:50 08:30:22 10° 340° (NNW) 08:30:54 145.825 MHz
JAS-2 22 Oct 08:53:40 08:59:10 23° 305° (NW) 09:04:50 435.800 - 435.900 CW/SSB, 435.910 FM
Saudisat 1A 22 Oct 09:18:09 09:22:33 88° 306° (NW) 09:26:59 436.775 MHz
AO-7 22 Oct 09:20:11 09:20:43 10° 329° (NNW) 09:21:15 29.400 - 29.500 MHz
RS-15 22 Oct 09:27:52 09:38:08 45° 249° (WSW) 09:48:50 29.354 - 29.394 USB, Beacon 29.352 USB
HO-68 22 Oct 09:29:54 09:36:22 35° 96° (E) 09:42:47 435.675 MHz FM
UKube-1 22 Oct 09:36:04 09:36:39 10° 88° (E) 09:37:13 145.840 MHz, 145.915 MHz
Oscar 11 22 Oct 10:17:39 10:21:19 27° 95° (E) 10:24:58 145.825 FM, Beacon 2401.500 USB
MaSat-1 22 Oct 10:19:31 10:22:15 67° 245° (WSW) 10:24:44 437.345 MHz
ZACube-1 22 Oct 10:58:31 11:02:22 31° 95° (E) 11:06:07 437.345 MHz
Saudisat 1A 22 Oct 10:59:44 11:02:45 18° 327° (NNW) 11:05:47 436.775 MHz
UKube-1 22 Oct 11:09:02 11:13:26 85° 285° (WNW) 11:17:48 145.840 MHz, 145.915 MHz
HO-68 22 Oct 11:17:22 11:24:19 53° 295° (WNW) 11:31:13 435.675 MHz FM
KITSAT 1 22 Oct 11:22:59 11:25:17 11° 96° (E) 11:27:35 435.175 FM
Sapphire 22 Oct 11:36:33 11:39:08 13° 27° (NNE) 11:41:43 437.095 MHz 1200 baud AX-25 AFSK
FUNcube-1 22 Oct 11:43:42 11:48:03 88° 284° (WNW) 11:52:15 145.950 - 145.970 MHz USB
Oscar 11 22 Oct 11:53:42 11:57:31 31° 292° (WNW) 12:01:19 145.825 FM, Beacon 2401.500 USB
PCSat 22 Oct 11:58:59 12:02:36 18° 34° (NNE) 12:06:12 145.825 MHz
ZACube-1 22 Oct 12:35:03 12:38:41 27° 294° (WNW) 12:42:15 437.345 MHz
Oscar 16 22 Oct 12:35:52 12:39:48 23° 61° (ENE) 12:43:44 437.025 USB, Beacon 2401.1428
JAS-1B 22 Oct 12:44:05 12:48:40 24° 60° (ENE) 12:53:07 435.800 - 435.900 CW/SSB
UKube-1 22 Oct 12:47:46 12:48:54 11° 303° (WNW) 12:50:02 145.840 MHz, 145.915 MHz
Uribyol 2 22 Oct 12:51:39 12:54:31 15° 56° (NE) 12:57:23 436.500 FM
AO-Echo 22 Oct 12:54:37 12:57:40 17° 58° (ENE) 13:00:47 ?
ITAMSAT 1 22 Oct 12:56:47 12:59:47 16° 57° (ENE) 13:02:47 435.822 SSB
HO-68 22 Oct 13:07:31 13:10:27 13° 316° (NW) 13:13:23 435.675 MHz FM
KITSAT 1 22 Oct 13:11:06 13:18:59 60° 116° (ESE) 13:26:53 435.175 FM
Sapphire 22 Oct 13:18:44 13:23:59 46° 50° (NE) 13:29:12 437.095 MHz 1200 baud AX-25 AFSK
FUNcube-1 22 Oct 13:22:44 13:23:41 11° 303° (WNW) 13:24:38 145.950 - 145.970 MHz USB
Oscar 19 22 Oct 13:28:23 13:33:27 59° 71° (ENE) 13:38:31 437.125 CW, 437.150 USB
AO-27 22 Oct 13:39:33 13:44:13 34° 65° (ENE) 13:48:54 436.795 MHz FM
PCSat 22 Oct 13:41:33 13:47:00 72° 55° (NE) 13:52:25 145.825 MHz
Oscar 16 22 Oct 14:13:43 14:18:47 56° 259° (W) 14:23:52 437.025 USB, Beacon 2401.1428
ISS 22 Oct 14:15:47 14:18:49 33° 142° (SE) 14:21:52 145.800 FM
SO-50 22 Oct 14:17:42 14:22:09 67° 123° (ESE) 14:26:47 436.795 FM
Uribyol 2 22 Oct 14:28:01 14:33:15 90° 37° (NE) 14:38:31 436.500 FM
AO-Echo 22 Oct 14:30:57 14:35:49 74° 257° (WSW) 14:40:52 ?
JAS-1B 22 Oct 14:33:11 14:39:05 54° 259° (W) 14:44:39 435.800 - 435.900 CW/SSB
ITAMSAT 1 22 Oct 14:33:21 14:38:34 86° 255° (WSW) 14:43:50 435.822 SSB
Gurwin Techsat 1B 22 Oct 14:37:07 14:42:17 56° 70° (ENE) 14:47:29 435.225 FM
AO-7 22 Oct 14:41:04 14:47:38 28° 51° (NE) 14:54:13 29.400 - 29.500 MHz
TMSAT-1 22 Oct 14:50:10 14:55:19 55° 70° (ENE) 15:00:31 436.925 FM
Sapphire 22 Oct 15:02:30 15:07:14 31° 249° (WSW) 15:11:56 437.095 MHz 1200 baud AX-25 AFSK
KITSAT 1 22 Oct 15:07:11 15:14:45 42° 319° (NW) 15:22:21 435.175 FM
Oscar 19 22 Oct 15:09:30 15:13:11 20° 269° (W) 15:16:52 437.125 CW, 437.150 USB
AO-27 22 Oct 15:18:57 15:23:41 35° 263° (W) 15:28:29 436.795 MHz FM
PCSat 22 Oct 15:26:08 15:29:50 19° 254° (WSW) 15:33:32 145.825 MHz
JAS-2 22 Oct 15:42:23 15:44:37 12° 46° (NE) 15:46:55 435.800 - 435.900 CW/SSB, 435.910 FM
ISS 22 Oct 15:52:10 15:55:26 50° 340° (NNW) 15:58:43 145.800 FM
UOSAT-12 22 Oct 15:56:01 16:00:35 61° 122° (ESE) 16:05:16 437.025 FM, 437.400 FM
SO-50 22 Oct 15:59:30 16:03:10 23° 324° (NW) 16:06:55 436.795 FM
Oscar 10/S400 22 Oct 16:03:28 16:20:46 43° 160° (SSE) 17:01:26 145.825 - 145.975 CW/USB, Beacon 145.810 USB
Saudisat 1A 22 Oct 16:03:30 16:07:13 25° 39° (NE) 16:10:54 436.775 MHz
Uribyol 2 22 Oct 16:11:16 16:13:27 13° 273° (W) 16:15:39 436.500 FM
Uosat F 22 Oct 16:13:28 16:18:19 51° 70° (ENE) 16:23:12 435.120 FM
ITAMSAT 1 22 Oct 16:16:57 16:18:50 12° 273° (W) 16:20:43 435.822 SSB
Gurwin Techsat 1B 22 Oct 16:18:37 16:22:37 22° 268° (W) 16:26:38 435.225 FM
AO-7 22 Oct 16:31:17 16:39:35 83° 252° (WSW) 16:47:56 29.400 - 29.500 MHz
TMSAT-1 22 Oct 16:31:32 16:35:35 22° 268° (W) 16:39:39 436.925 FM
KITSAT 1 22 Oct 17:07:05 17:12:39 20° 346° (NNW) 17:18:14 435.175 FM
JAS-2 22 Oct 17:22:17 17:28:02 56° 68° (ENE) 17:34:35 435.800 - 435.900 CW/SSB, 435.910 FM
ISS 22 Oct 17:29:37 17:32:36 29° 360° (N) 17:35:36 145.800 FM
Hamsat 22 Oct 17:32:59 17:36:52 38° 70° (ENE) 17:40:46 145.90 MHz
UOSAT-12 22 Oct 17:37:13 17:41:07 25° 322° (NW) 17:45:03 437.025 FM, 437.400 FM
Saudisat 1A 22 Oct 17:42:44 17:47:03 53° 239° (WSW) 17:51:21 436.775 MHz
OPAL 22 Oct 17:43:42 17:47:47 25° 96° (E) 17:51:49 ?
Uosat F 22 Oct 17:53:33 17:57:23 22° 267° (W) 18:01:16 435.120 FM
AO-7 22 Oct 18:28:15 18:33:35 18° 272° (W) 18:38:57 29.400 - 29.500 MHz
SO-67 22 Oct 18:59:56 19:03:10 40° 72° (ENE) 19:06:26 435.3500 MHz FM
KITSAT 1 22 Oct 19:05:47 19:11:35 21° 17° (NNE) 19:17:21 435.175 FM
ISS 22 Oct 19:06:30 19:09:47 50° 20° (NNE) 19:13:03 145.800 FM
JAS-2 22 Oct 19:08:43 19:13:37 27° 271° (W) 19:19:02 435.800 - 435.900 CW/SSB, 435.910 FM
Hamsat 22 Oct 19:09:43 19:12:57 21° 267° (W) 19:16:11 145.90 MHz
OPAL 22 Oct 19:22:08 19:26:52 44° 294° (WNW) 19:31:32 ?
STRAND 1 22 Oct 19:23:36 19:28:07 30° 95° (E) 19:32:36 ?
HO-68 22 Oct 20:01:19 20:07:37 35° 59° (ENE) 20:13:57 435.675 MHz FM
UKube-1 22 Oct 20:33:04 20:35:22 14° 59° (ENE) 20:37:40 145.840 MHz, 145.915 MHz
SO-67 22 Oct 20:34:38 20:36:22 13° 269° (W) 20:38:06 435.3500 MHz FM
ISS 22 Oct 20:43:21 20:46:25 34° 218° (SW) 20:49:27 145.800 FM
KITSAT 1 22 Oct 21:01:29 21:09:16 47° 44° (NE) 21:16:59 435.175 FM
STRAND 1 22 Oct 21:02:36 21:07:23 39° 293° (WNW) 21:12:07 ?
SO-50 22 Oct 21:06:53 21:10:46 24° 37° (NE) 21:14:42 436.795 FM
FUNcube-1 22 Oct 21:08:32 21:10:42 13° 59° (ENE) 21:12:50 145.950 - 145.970 MHz USB
Oscar 11 22 Oct 21:15:04 21:18:49 30° 67° (ENE) 21:22:35 145.825 FM, Beacon 2401.500 USB
RS-15 22 Oct 21:44:33 21:53:00 27° 103° (ESE) 22:01:21 29.354 - 29.394 USB, Beacon 29.352 USB
HO-68 22 Oct 21:48:04 21:55:03 55° 259° (W) 22:02:05 435.675 MHz FM
ZACube-1 22 Oct 21:56:58 22:01:10 36° 69° (ENE) 22:05:20 437.345 MHz
